(292989) = 2006 VG170

Discovered at Mount Lemmon on 2006-11-11 by Mt. Lemmon Survey.

Orbit

Orbit type: Main Belt

Note: WebGL enabled browser required.

epoch2022-01-21.0
epoch JD2459600.5
perihelion date2019-08-27.01681
perihelion JD2458722.51681
argument of perihelion (°)99.00501
ascending node (°)250.17018
inclination (°)4.82243
eccentricity0.0524512
perihelion distance (AU)2.6100369
Tisserand w.r.t. Jupiter3.3
ΔV w.r.t. Earth (km/sec)10.2
semimajor axis (AU)2.7545146
mean anomaly (°)189.28771
mean daily motion (°/day)0.21559380
aphelion distance (AU)2.899
period (years)4.57
P-vector [x]0.97891700
P-vector [y]-0.20424918
P-vector [z]0.00194684
Q-vector [x]0.18832783
Q-vector [y]0.90621807
Q-vector [z]0.37855176
absolute magnitude16.84
phase slope0.15
uncertainty0
referenceMPO 697018
observations used253
oppositions14
arc length (days)7496
first opposition used2001
last opposition used2022
residual rms (arc-secs)0.78
perturbers coarse indicatorM-v
perturbers precise indicator003Ek
first observation date used2001-10-19.0
last observation date used2022-04-28.0
computer namePan
JD of orbit computation2456909.251783
perihelion JD uncertainty (days)2.0930E-04
argument of perihelion uncertainty (°)7.4456E-05
ascending node uncertainty (°)5.7057E-05
inclination uncertainty (°)4.3523E-06
eccentricity uncertainty 5.4877E-08
perihelion distance uncertainty (AU)1.6775E-07
Minimum Orbit Intersection Distances (in AU)
for orbit epoch: 2458200.5, reference: MPO402095
Mercury2.21791
Venus1.89385
Earth1.6084
Mars1.20677
Jupiter2.31307
Saturn6.27873
Uranus15.3103
Neptune27.1504

Observations

262 total observations over interval: 2001 10 19.32723 – 2022 04 28.372172
These data are available for download (format description).

Date (UT) J2000 RA J2000 Dec Magn Location Ref
2001 10 19.32723 01 33 30.95 +15 31 40.6 20.1   644 – Palomar Mountain/NEAT MPS 250481
2001 10 19.34836 01 33 29.82 +15 31 32.2 20.7   644 – Palomar Mountain/NEAT MPS 250481
2001 10 19.36960 01 33 28.74 +15 31 24.5 20.7   644 – Palomar Mountain/NEAT MPS 250481
2001 11 20.06265 01 12 50.85 +12 18 15.8 21.8 V 691 – Steward Observatory, Kitt Peak-Spacewatch MPS 250481
2001 11 20.08445 01 12 50.38 +12 18 09.8 21.3 V 691 – Steward Observatory, Kitt Peak-Spacewatch MPS 250481
2001 11 20.10964 01 12 49.84 +12 18 02.0 21.6 V 691 – Steward Observatory, Kitt Peak-Spacewatch MPS 250481
2004 04 24.29868 14 15 14.64 -17 58 38.0 21.0 V 691 – Steward Observatory, Kitt Peak-Spacewatch MPS 250481
2004 04 24.34514 14 15 12.22 -17 58 23.2 20.6 V 691 – Steward Observatory, Kitt Peak-Spacewatch MPS 250481
2004 04 24.41065 14 15 08.81 -17 58 02.0 21.3 V 691 – Steward Observatory, Kitt Peak-Spacewatch MPS 250481
2006 11 11.38584 05 07 55.16 +23 14 46.5 20.6 V G96 – Mt. Lemmon Survey MPS 250481
2006 11 11.39032 05 07 54.98 +23 14 45.4 20.8 V G96 – Mt. Lemmon Survey MPS 250481
2006 11 11.39479 05 07 54.76 +23 14 45.0 21.2 V G96 – Mt. Lemmon Survey MPS 250481
2006 11 11.39933 05 07 54.58 +23 14 44.3 20.9 V G96 – Mt. Lemmon Survey MPS 250481
2006 12 01.28086 04 50 45.97 +22 16 00.3 20.7 V 691 – Steward Observatory, Kitt Peak-Spacewatch MPS 250481
2006 12 01.29813 04 50 44.94 +22 15 57.0 20.8 V 691 – Steward Observatory, Kitt Peak-Spacewatch MPS 250481
2006 12 01.31546 04 50 43.87 +22 15 53.6 20.6 V 691 – Steward Observatory, Kitt Peak-Spacewatch MPS 250481
2006 12 15.36398 04 37 17.94 +21 27 21.6 20.2 V G96 – Mt. Lemmon Survey MPS 250481
2006 12 15.37171 04 37 17.50 +21 27 19.8 20.1 V G96 – Mt. Lemmon Survey MPS 250481
2006 12 15.37951 04 37 17.07 +21 27 18.3 20.1 V G96 – Mt. Lemmon Survey MPS 250481
2006 12 15.38727 04 37 16.64 +21 27 16.8 20.1 V G96 – Mt. Lemmon Survey MPS 250481
2006 12 27.16748 04 27 48.20 +20 49 02.9 20.3 V G96 – Mt. Lemmon Survey MPS 250481
2006 12 27.17534 04 27 47.88 +20 49 01.6 20.4 V G96 – Mt. Lemmon Survey MPS 250481
2006 12 27.18321 04 27 47.48 +20 49 00.0 20.5 V G96 – Mt. Lemmon Survey MPS 250481
2006 12 27.19109 04 27 47.16 +20 48 59.0 20.1 V G96 – Mt. Lemmon Survey MPS 250481
2007 01 10.24562 04 20 37.64 +20 14 00.5 20.7 V G96 – Mt. Lemmon Survey MPS 250481
2007 01 10.25123 04 20 37.53 +20 14 00.3 20.2 V G96 – Mt. Lemmon Survey MPS 250481
2007 01 10.25686 04 20 37.42 +20 13 59.5 20.6 V G96 – Mt. Lemmon Survey MPS 250481
2007 01 10.26248 04 20 37.28 +20 13 58.6 20.5 V G96 – Mt. Lemmon Survey MPS 250481
2008 03 11.32670 10 53 00.24 -00 43 12.6 20.6 V G96 – Mt. Lemmon Survey MPS 250482
2008 03 11.33610 10 52 59.73 -00 43 09.3 20.6 V G96 – Mt. Lemmon Survey MPS 250482
2008 03 11.34553 10 52 59.30 -00 43 06.0 20.1 V G96 – Mt. Lemmon Survey MPS 250482
2010 09 10.24056 00 47 38.80 +12 28 37.4 21.0 V 691 – Steward Observatory, Kitt Peak-Spacewatch MPS 348037
2010 09 10.25830 00 47 38.16 +12 28 34.1 20.5 V 691 – Steward Observatory, Kitt Peak-Spacewatch MPS 348037
2010 09 10.27600 00 47 37.48 +12 28 30.9 20.7 V 691 – Steward Observatory, Kitt Peak-Spacewatch MPS 348037
2010 09 14.23704 00 45 09.67 +12 15 18.5 20.7 V 691 – Steward Observatory, Kitt Peak-Spacewatch MPS 348037
2010 09 14.25474 00 45 08.93 +12 15 14.4 20.5 V 691 – Steward Observatory, Kitt Peak-Spacewatch MPS 348037
2010 09 14.27591 00 45 08.08 +12 15 10.2 20.3 V 691 – Steward Observatory, Kitt Peak-Spacewatch MPS 348037
2010 09 30.29319 00 33 06.51 +10 56 15.1 19.8 V 703 – Catalina Sky Survey MPS 349509
2010 09 30.30060 00 33 06.12 +10 56 12.6 19.4 V 703 – Catalina Sky Survey MPS 349509
2010 09 30.30806 00 33 05.58 +10 56 11.6 20.6 V 703 – Catalina Sky Survey MPS 349509
2010 09 30.31548 00 33 05.25 +10 56 08.4 20.5 V 703 – Catalina Sky Survey MPS 349509
2010 10 07.34351 00 27 26.33 +10 12 09.9 20.4 V 291 – LPL/Spacewatch II MPS 349509
2010 10 07.35118 00 27 25.96 +10 12 06.9 20.4 V 291 – LPL/Spacewatch II MPS 349509
2010 10 07.36266 00 27 25.40 +10 12 02.5 20.5 V 291 – LPL/Spacewatch II MPS 349509
2010 10 08.342179 00 26 39.377 +10 05 42.30 20.90 g F51 – Pan-STARRS 1, Haleakala MPS 365653
2010 10 08.354016 00 26 38.803 +10 05 37.72 21.17 g F51 – Pan-STARRS 1, Haleakala MPS 365653
2010 10 09.23611 00 25 57.36 +09 59 51.0 19.4 V 703 – Catalina Sky Survey MPS 351319
2010 10 09.24538 00 25 56.85 +09 59 46.8 19.9 V 703 – Catalina Sky Survey MPS 351319
2010 10 09.25484 00 25 56.42 +09 59 42.9 19.4 V 703 – Catalina Sky Survey MPS 351319
2010 10 09.26434 00 25 55.99 +09 59 39.6 19.9 V 703 – Catalina Sky Survey MPS 351319
2010 10 10.93567 00 24 38.63 +09 48 39.8 19.1 V B86 – Sternwarte Hagen MPS 357470
2010 10 10.98349 00 24 36.36 +09 48 20.3 19.1 V B86 – Sternwarte Hagen MPS 357470
2010 10 12.23861 00 23 39.44 +09 40 06.0 19.7   704 – Lincoln Laboratory ETS, New Mexico MPS 351319
2010 10 12.25269 00 23 38.74 +09 39 59.6 20.1   704 – Lincoln Laboratory ETS, New Mexico MPS 351319
2010 10 12.26671 00 23 38.12 +09 39 52.9 20.4   704 – Lincoln Laboratory ETS, New Mexico MPS 351319
2010 10 13.87190 00 22 26.83 +09 29 15.3 18.3 V B86 – Sternwarte Hagen MPS 357470
2010 10 13.91239 00 22 25.02 +09 29 00.1 18.4 V B86 – Sternwarte Hagen MPS 357470
2010 10 13.95268 00 22 23.17 +09 28 44.6 18.4 V B86 – Sternwarte Hagen MPS 357470
2010 12 06.16387 00 13 30.00 +06 03 45.9 21.5 V G96 – Mt. Lemmon Survey MPS 359030
2010 12 06.17179 00 13 30.18 +06 03 45.9 21.2 V G96 – Mt. Lemmon Survey MPS 359030
2010 12 06.17966 00 13 30.43 +06 03 46.3 21.0 V G96 – Mt. Lemmon Survey MPS 359030
2010 12 06.18760 00 13 30.61 +06 03 46.2 21.4 V G96 – Mt. Lemmon Survey MPS 359030
2011 12 27.35344 07 59 42.08 +15 50 47.6 21.3 V 691 – Steward Observatory, Kitt Peak-Spacewatch MPS 405863
2011 12 27.37122 07 59 41.21 +15 50 48.1 20.9 V 691 – Steward Observatory, Kitt Peak-Spacewatch MPS 405863
2011 12 27.38902 07 59 40.34 +15 50 48.7 20.5 V 691 – Steward Observatory, Kitt Peak-Spacewatch MPS 405863
2012 01 25.29940 07 33 18.533 +16 21 09.17 20.3 i F51 – Pan-STARRS 1, Haleakala MPS 410060
2012 01 25.31267 07 33 17.799 +16 21 10.35 20.5 i F51 – Pan-STARRS 1, Haleakala MPS 410060
2013 04 09.44623 13 23 57.270 -14 40 24.42 20.5 w F51 – Pan-STARRS 1, Haleakala MPS 463903
2013 04 09.47559 13 23 55.770 -14 40 14.60 20.4 w F51 – Pan-STARRS 1, Haleakala MPS 463903
2013 04 09.49022 13 23 55.022 -14 40 09.71 20.4 w F51 – Pan-STARRS 1, Haleakala MPS 463903
2013 04 16.19143 13 18 24.43 -14 01 00.7 21.3 r W84 – Cerro Tololo-DECam MPS 470589
2013 04 16.19553 13 18 24.22 -14 00 59.2 21.3 r W84 – Cerro Tololo-DECam MPS 470589
2013 04 16.19964 13 18 24.01 -14 00 57.7 21.2 r W84 – Cerro Tololo-DECam MPS 470589
2013 04 16.20390 13 18 23.79 -14 00 56.1 21.3 r W84 – Cerro Tololo-DECam MPS 470590
2013 04 17.08243 13 17 41.02 -13 55 37.2 21.7 r W84 – Cerro Tololo-DECam MPS 470590
2013 04 17.08659 13 17 40.81 -13 55 35.7 21.8 r W84 – Cerro Tololo-DECam MPS 470590
2013 04 17.09073 13 17 40.60 -13 55 34.2 21.8 r W84 – Cerro Tololo-DECam MPS 470590
2013 04 17.09491 13 17 40.39 -13 55 32.7 21.8 r W84 – Cerro Tololo-DECam MPS 470590
2013 04 18.08101 13 16 52.44 -13 49 32.8 21.9 r W84 – Cerro Tololo-DECam MPS 470590
2013 04 18.08520 13 16 52.23 -13 49 31.3 21.8 r W84 – Cerro Tololo-DECam MPS 470590
2013 04 18.08938 13 16 52.02 -13 49 29.7 21.8 r W84 – Cerro Tololo-DECam MPS 470590
2013 04 18.09352 13 16 51.81 -13 49 28.2 21.8 r W84 – Cerro Tololo-DECam MPS 470590
2013 04 19.12335 13 16 02.00 -13 43 10.4 21.6 r W84 – Cerro Tololo-DECam MPS 470590
2013 04 19.12751 13 16 01.79 -13 43 08.9 21.6 r W84 – Cerro Tololo-DECam MPS 470590
2013 04 19.13182 13 16 01.58 -13 43 07.3 21.6 r W84 – Cerro Tololo-DECam MPS 470590
2013 04 19.13599 13 16 01.37 -13 43 05.8 21.6 r W84 – Cerro Tololo-DECam MPS 470590
2014 06 19.35486 20 48 12.98 -12 38 55.6   691 – Steward Observatory, Kitt Peak-Spacewatch MPS 519932
2014 06 19.37008 20 48 12.68 -12 38 54.3   691 – Steward Observatory, Kitt Peak-Spacewatch MPS 519932
2014 06 19.38529 20 48 12.42 -12 38 52.8   691 – Steward Observatory, Kitt Peak-Spacewatch MPS 519932
2014 06 23.34662 20 46 55.34 -12 33 12.4 21.1 V 691 – Steward Observatory, Kitt Peak-Spacewatch MPS 521150
